Home   Weather   Neumünster   Past weeks
Flag for Germany

Past Weather in Neumünster, Schleswig-Holstein, Germany — Yesterday and Last 2 Weeks

Now
48 °F

Overcast.


Feels Like: 46 °F
Forecast: 48 / 43 °F
Wind: 5 mph from West

Location: Itzehoe

Current Time: Dec 7, 2019 at 11:49:16 pm

Latest Report: Dec 7, 2019 at 11:00 pm


Visibility: 14 mi

Pressure: 29.75 "Hg

Humidity: 90%

Dew Point: 45 °F

Location of NeumünsterLocation

Past Weather in Neumünster — Graph

°F

Neumünster Temperature Yesterday

Maximum temperature yesterday: 47 °F (at 11:00 pm)
Minimum temperature yesterday: 40 °F (at 12:00 am)
Average temperature yesterday: 44 °F

High & Low Weather Summary for the Past Weeks

 TemperatureHumidityPressure
High51 °F (Nov 28, 5:00 am)100% (Nov 30, 9:00 am)30.28 "Hg (Nov 30, 9:00 am)
Low30 °F (Dec 1, 3:00 am)57% (Nov 29, 2:00 pm)29.03 "Hg (Nov 28, 5:00 am)
Average42 °F92%29.83 "Hg
* Reported Nov 22 11:00 pm — Dec 7 9:00 pm, Neumünster. Weather by CustomWeather, © 2019

Note: Actual official high and low records may vary slightly from our data, if they occured in-between our weather recording intervals... More about our weather records

Neumünster Weather History for the Previous 24 Hours

Scroll right to see more
 ConditionsComfort  
Time TempWeatherWind HumidityBarometerVisibility
9:00 pm
Sat, Dec 7
48 °FOvercast.5 mph91%29.76 "Hg16 mi
8:00 pm48 °FLight rain. Low clouds.5 mph94%29.76 "Hg6 mi
6:00 pm47 °FDrizzle. Low clouds.3 mph97%29.76 "Hg12 mi
5:00 pm47 °FRain. Overcast.5 mph94%29.75 "Hg5 mi
3:00 pm48 °FOvercast.3 mph85%29.72 "Hg31 mi
2:00 pm49 °FOvercast.3 mph90%29.70 "Hg22 mi
12:00 pm49 °FOvercast.3 mph89%29.67 "Hg22 mi
11:00 am48 °FOvercast.3 mph91%29.67 "Hg19 mi
9:00 am48 °FLight rain. Low clouds.5 mph96%29.62 "Hg2 mi
8:00 am49 °FOvercast.6 mph88%29.58 "Hg15 mi
6:00 am49 °FLight rain. Overcast.6 mph91%29.50 "Hg12 mi
5:00 am49 °FDrizzle. Low clouds.6 mph95%29.47 "Hg11 mi
3:00 am47 °FDrizzle. Low clouds.5 mph96%29.44 "Hg6 mi
2:00 am48 °FLight rain. Low clouds.6 mph94%29.44 "Hg5 mi
12:00 am47 °FLight rain. Low clouds.6 mph95%29.44 "Hg2 mi
11:00 pm
Fri, Dec 6
47 °FDrizzle. Low clouds.6 mph96%29.44 "Hg6 mi
Weather by CustomWeather, © 2019

See weather overview

Advertising